FW3572 Weather Reports


Display with metric or nautical units.
time (UTC)temp
F
wind
direction
speed
MPH
gust
MPH
rain 1hr
in
rain 24hr
in
rain mn
in
humidity
%
barometer
mb
20200927073518 77 239 0.0 0.0 0.00 0.01 0.00 80 1014.8
20200927073038 77 239 0.0 0.0 0.00 0.01 0.00 80 1014.9
20200927072512 77 239 0.0 3.0 0.00 0.01 0.00 80 1015.0
20200927072017 77 239 0.0 3.0 0.00 0.01 0.00 80 1015.1
20200927071527 77 239 0.0 3.0 0.00 0.01 0.00 80 1015.1
20200927071011 77 239 1.0 3.0 0.00 0.01 0.00 80 1015.2
20200927070515 77 239 0.0 2.0 0.00 0.01 0.00 79 1015.2
20200927070047 77 239 0.0 3.0 0.00 0.01 0.00 79 1015.1
20200927065509 77 239 0.0 3.0 0.00 0.01 0.00 79 1015.3
20200927065011 77 239 0.0 3.0 0.00 0.01 0.00 79 1015.3
20200927064515 77 238 0.0 3.0 0.00 0.01 0.00 78 1015.3
20200927064022 78 236 0.0 3.0 0.00 0.01 0.00 78 1015.4
20200927063512 78 247 1.0 3.0 0.00 0.01 0.00 78 1015.4
20200927063016 78 275 0.0 3.0 0.00 0.01 0.00 78 1015.5
20200927062508 78 238 0.0 3.0 0.00 0.01 0.00 78 1015.5
20200927062007 78 234 0.0 1.0 0.00 0.01 0.00 78 1015.5
20200927061516 78 234 0.0 2.0 0.00 0.01 0.00 78 1015.6
20200927061019 78 234 0.0 2.0 0.00 0.01 0.00 78 1015.7
20200927060511 78 234 0.0 2.0 0.00 0.01 0.00 78 1015.8
20200927060022 78 234 0.0 2.0 0.00 0.01 0.00 78 1015.8
20200927055514 78 234 0.0 0.0 0.00 0.01 0.00 78 1015.8
20200927055001 78 234 0.0 0.0 0.00 0.01 0.00 77 1015.9
20200927054644 78 234 0.0 0.0 0.00 0.01 0.00 78 1016.0
20200927054140 78 234 0.0 0.0 0.00 0.01 0.00 78 1016.1
20200927053601 78 234 0.0 0.0 0.00 0.01 0.00 77 1016.1
20200927053210 78 234 0.0 0.0 0.00 0.01 0.00 77 1016.1
20200927052601 78 234 0.0 0.0 0.00 0.01 0.00 77 1016.2
20200927052056 78 234 0.0 0.0 0.00 0.01 0.00 77 1016.2
20200927051716 79 234 0.0 0.0 0.00 0.01 0.00 77 1016.3
20200927051106 79 234 0.0 0.0 0.00 0.01 0.00 77 1016.3
20200927050557 79 234 0.0 0.0 0.00 0.01 0.00 77 1016.3
20200927050249 79 234 0.0 0.0 0.00 0.01 0.00 76 1016.4
20200927045555 79 234 0.0 0.0 0.00 0.01 0.00 76 1016.4
20200927045123 79 234 0.0 2.0 0.00 0.01 0.00 76 1016.4
20200927044600 79 234 0.0 3.0 0.00 0.01 0.00 76 1016.4
20200927044100 79 234 1.0 3.0 0.00 0.01 0.00 76 1016.5
20200927043555 79 234 1.0 3.0 0.00 0.01 0.00 76 1016.6
20200927043110 79 233 0.0 0.0 0.00 0.01 0.00 76 1016.7
20200927042550 79 233 0.0 1.0 0.00 0.01 0.00 76 1016.7
20200927042049 80 233 0.0 2.0 0.00 0.01 0.00 76 1016.8
20200927041658 80 233 1.0 2.0 0.00 0.01 0.00 75 1016.8
20200927041048 80 233 0.0 2.0 0.00 0.01 0.00 75 1016.9
20200927040645 80 234 0.0 0.0 0.00 0.01 0.00 75 1016.9
20200927040127 80 234 0.0 2.0 0.00 0.01 0.00 75 1017.1
20200927035550 80 234 0.0 2.0 0.00 0.01 0.01 74 1017.1
20200927035100 80 234 0.0 3.0 0.00 0.01 0.01 74 1017.2
20200927034557 81 234 1.0 3.0 0.00 0.01 0.01 74 1017.1
20200927034111 81 177 0.0 0.0 0.00 0.01 0.01 74 1017.2
20200927033545 81 177 0.0 2.0 0.00 0.01 0.01 74 1017.2
20200927033123 81 177 0.0 2.0 0.00 0.01 0.01 73 1017.2
20200927032544 81 177 0.0 3.0 0.00 0.01 0.01 73 1017.2
20200927032127 81 176 0.0 3.0 0.00 0.01 0.01 73 1017.2
20200927031624 82 142 1.0 3.0 0.00 0.01 0.01 73 1017.2
20200927031107 81 140 0.0 3.0 0.00 0.01 0.01 73 1017.2
20200927030544 81 120 1.0 2.0 0.00 0.01 0.01 73 1017.1
20200927030132 82 119 0.0 3.0 0.00 0.01 0.01 73 1017.1
20200927025545 82 119 0.0 4.0 0.00 0.01 0.01 72 1017.2
20200927025043 82 140 1.0 4.0 0.00 0.01 0.01 72 1017.1
20200927024611 82 126 1.0 4.0 0.00 0.01 0.01 72 1017.1
20200927024052 82 113 1.0 4.0 0.00 0.01 0.01 72 1017.1
20200927023545 82 113 2.0 6.0 0.00 0.01 0.01 72 1017.2
20200927023123 82 108 2.0 6.0 0.00 0.01 0.01 72 1017.1
20200927022551 82 129 1.0 6.0 0.00 0.01 0.01 72 1017.0
20200927022042 82 130 2.0 6.0 0.00 0.01 0.01 72 1017.1
20200927021702 82 117 2.0 6.0 0.00 0.01 0.01 72 1017.2
20200927021044 82 115 1.0 6.0 0.00 0.01 0.01 72 1017.2
20200927020542 82 98 2.0 6.0 0.00 0.01 0.01 72 1017.2
20200927020132 82 117 1.0 7.0 0.00 0.01 0.01 71 1017.1
20200927015603 82 111 2.0 7.0 0.00 0.02 0.01 71 1017.1
20200927015043 82 104 2.0 7.0 0.00 0.02 0.01 71 1017.0
20200927014608 82 133 3.0 6.0 0.00 0.02 0.01 71 1016.9
20200927014048 82 110 1.0 8.0 0.00 0.02 0.01 71 1016.8
20200927013605 82 106 2.0 8.0 0.00 0.02 0.01 71 1016.9
20200927013053 82 110 1.0 6.0 0.00 0.02 0.01 71 1016.7
20200927012540 82 119 2.0 8.0 0.00 0.02 0.01 71 1016.6
20200927012039 82 82 2.0 8.0 0.00 0.02 0.01 71 1016.4
20200927011542 82 115 2.0 6.0 0.00 0.02 0.01 71 1016.4
20200927011054 82 109 2.0 6.0 0.00 0.02 0.01 71 1016.5
20200927010617 82 111 3.0 7.0 0.00 0.02 0.01 71 1016.5
20200927010159 82 111 2.0 7.0 0.00 0.02 0.01 70 1016.4
20200927005540 82 98 2.0 7.0 0.00 0.04 0.01 70 1016.4
20200927005039 82 103 2.0 7.0 0.00 0.04 0.01 70 1016.3
20200927004613 82 95 1.0 8.0 0.00 0.04 0.01 70 1016.3
20200927004041 83 85 1.0 8.0 0.00 0.04 0.01 70 1016.1
20200927003619 83 122 1.0 6.0 0.00 0.04 0.01 70 1016.2
20200927003135 82 109 1.0 7.0 0.00 0.04 0.01 70 1016.3
20200927002541 82 104 2.0 7.0 0.00 0.04 0.01 70 1016.3
20200927002038 82 107 2.0 7.0 0.00 0.04 0.01 70 1016.3
20200927001037 83 98 1.0 5.0 0.00 0.04 0.01 69 1016.2
20200927000548 83 84 1.0 6.0 0.00 0.04 0.01 69 1016.1
20200927000133 83 96 2.0 6.0 0.00 0.04 0.01 69 1016.0
20200926235538 83 101 1.0 4.0 0.00 0.06 0.01 68 1016.0
20200926235038 83 119 1.0 6.0 0.00 0.06 0.01 68 1015.9
20200926234544 83 105 1.0 6.0 0.00 0.06 0.01 69 1015.8
20200926234035 83 46 1.0 6.0 0.00 0.06 0.01 69 1015.5
20200926233536 83 78 2.0 6.0 0.00 0.06 0.01 69 1015.3
20200926233124 83 120 2.0 6.0 0.00 0.06 0.01 68 1015.3
20200926232552 83 80 1.0 3.0 0.00 0.06 0.01 68 1015.3
20200926232039 83 80 1.0 4.0 0.00 0.06 0.01 68 1015.3
20200926231615 83 121 0.0 6.0 0.00 0.06 0.01 68 1015.3
20200926231035 83 96 1.0 6.0 0.00 0.06 0.01 67 1015.3
20200926230544 84 178 1.0 4.0 0.00 0.06 0.01 67 1015.2
20200926230058 84 132 0.0 5.0 0.00 0.06 0.01 67 1015.3
20200926225539 84 74 1.0 9.0 0.00 0.06 0.01 66 1015.4
20200926225047 84 76 2.0 6.0 0.00 0.06 0.01 66 1015.3
20200926224549 84 48 2.0 7.0 0.00 0.06 0.01 66 1015.3
20200926224035 84 61 1.0 7.0 0.00 0.06 0.01 66 1015.4
20200926223544 84 60 2.0 5.0 0.00 0.06 0.01 65 1015.3
20200926223045 84 59 1.0 5.0 0.00 0.06 0.01 65 1015.3
20200926222556 84 98 0.0 6.0 0.00 0.06 0.01 65 1015.3
20200926222033 84 45 0.0 5.0 0.00 0.06 0.01 64 1015.2
20200926221600 84 81 0.0 3.0 0.00 0.06 0.01 64 1015.2
20200926221035 85 31 0.0 5.0 0.00 0.06 0.01 64 1015.1
20200926220534 85 5 2.0 5.0 0.00 0.06 0.01 63 1015.1
20200926220318 85 109 1.0 8.0 0.00 0.06 0.01 64 1015.1
20200926215542 85 360 2.0 8.0 0.00 0.07 0.01 64 1015.0
20200926215043 85 94 2.0 6.0 0.00 0.07 0.01 63 1015.1
20200926214557 85 57 1.0 6.0 0.00 0.07 0.01 64 1015.2
20200926214033 85 113 2.0 9.0 0.00 0.07 0.01 64 1015.2
20200926213533 86 5 1.0 9.0 0.00 0.07 0.01 64 1015.2
20200926213050 85 5 1.0 9.0 0.00 0.07 0.01 65 1015.3
20200926212551 85 109 1.0 4.0 0.00 0.07 0.01 65 1015.2
20200926212052 85 21 0.0 8.0 0.00 0.07 0.01 65 1015.3
20200926211540 85 141 2.0 8.0 0.00 0.07 0.01 65 1015.4
20200926211032 85 94 2.0 6.0 0.00 0.07 0.01 65 1015.5
20200926210532 85 355 2.0 8.0 0.00 0.07 0.01 64 1015.3
20200926210118 86 48 3.0 8.0 0.00 0.07 0.01 64 1015.3
20200926205532 86 59 2.0 6.0 0.00 0.09 0.01 63 1015.3
20200926205031 86 123 1.0 6.0 0.00 0.09 0.01 63 1015.3
20200926204553 86 57 1.0 10.0 0.00 0.09 0.01 62 1015.2
20200926204038 87 40 1.0 9.0 0.00 0.09 0.01 62 1015.1
20200926203542 87 348 1.0 9.0 0.00 0.09 0.01 61 1015.0
20200926203100 88 104 1.0 6.0 0.00 0.09 0.01 59 1015.1
20200926202531 87 360 2.0 6.0 0.00 0.09 0.01 61 1015.0
20200926202029 88 38 2.0 6.0 0.00 0.09 0.01 62 1015.2
20200926201535 87 165 2.0 8.0 0.00 0.09 0.01 63 1014.9
20200926201030 87 113 2.0 8.0 0.00 0.09 0.01 63 1015.2
20200926200529 87 105 2.0 9.0 0.00 0.09 0.01 64 1015.2
20200926200112 87 136 3.0 9.0 0.00 0.09 0.01 63 1015.2
20200926195528 88 119 2.0 6.0 0.00 0.09 0.01 61 1015.1
20200926195032 88 65 0.0 7.0 0.00 0.09 0.01 63 1015.0
20200926194640 87 32 1.0 7.0 0.00 0.09 0.01 63 1015.0
20200926194027 87 95 2.0 8.0 0.00 0.09 0.01 63 1015.0
20200926193532 88 33 2.0 8.0 0.00 0.09 0.01 62 1015.0
20200926193112 87 360 1.0 6.0 0.00 0.09 0.01 64 1015.2
20200926192533 87 121 3.0 6.0 0.00 0.09 0.01 63 1015.3
20200926192033 88 69 1.0 7.0 0.00 0.09 0.01 63 1015.4
20200926191600 87 47 2.0 9.0 0.00 0.09 0.01 64 1015.4
20200926191039 87 75 2.0 9.0 0.00 0.09 0.01 65 1015.5
20200926190522 87 81 3.0 11.0 0.00 0.09 0.01 65 1015.6
20200926190043 86 151 5.0 9.0 0.00 0.09 0.01 65 1015.7
20200926185524 86 100 2.0 8.0 0.00 0.31 0.01 65 1015.7
20200926185026 86 87 1.0 8.0 0.00 0.31 0.01 65 1015.9
20200926184545 87 108 1.0 8.0 0.00 0.31 0.01 64 1015.9
20200926184039 88 13 2.0 10.0 0.00 0.31 0.01 62 1016.1
20200926183523 89 118 4.0 10.0 0.00 0.31 0.01 60 1016.1
20200926183123 91 28 0.0 5.0 0.00 0.31 0.01 52 1016.2
20200926182522 90 319 2.0 5.0 0.00 0.31 0.01 55 1016.2
20200926182022 89 324 2.0 5.0 0.00 0.31 0.01 58 1016.2
20200926181539 88 355 1.0 5.0 0.00 0.31 0.01 59 1016.3
20200926181023 90 243 2.0 6.0 0.00 0.31 0.01 58 1016.3
20200926180536 89 344 2.0 6.0 0.00 0.31 0.01 59 1016.3
20200926180048 88 323 0.0 8.0 0.00 0.31 0.01 60 1016.4
20200926175521 88 306 2.0 8.0 0.00 0.50 0.01 59 1016.5
20200926174552 91 338 2.0 7.0 0.00 0.50 0.01 59 1016.7
20200926174026 90 267 2.0 6.0 0.00 0.50 0.01 58 1016.6
20200926173518 90 287 2.0 8.0 0.00 0.50 0.01 58 1016.7
20200926173029 90 268 2.0 8.0 0.00 0.50 0.01 59 1016.8
20200926172516 89 246 1.0 8.0 0.00 0.50 0.01 60 1016.9
20200926172019 88 323 0.0 8.0 0.00 0.50 0.01 61 1017.0
20200926171532 89 329 2.0 7.0 0.00 0.50 0.01 62 1017.0
20200926171021 88 53 2.0 7.0 0.00 0.50 0.01 61 1017.1
20200926170513 88 282 1.0 9.0 0.00 0.50 0.01 62 1017.1
20200926170038 88 355 2.0 9.0 0.00 0.50 0.01 62 1017.1
20200926165511 87 302 3.0 8.0 0.00 0.57 0.01 63 1017.3
20200926165013 88 309 2.0 6.0 0.00 0.57 0.01 63 1017.3
20200926164530 88 321 1.0 8.0 0.00 0.57 0.01 63 1017.2
20200926164011 87 340 2.0 11.0 0.00 0.57 0.01 64 1017.3
20200926163518 87 227 4.0 11.0 0.00 0.57 0.01 62 1017.4
20200926163019 87 299 3.0 10.0 0.00 0.57 0.01 64 1017.3
20200926162519 87 344 3.0 8.0 0.00 0.57 0.01 65 1017.4
20200926162009 87 289 2.0 9.0 0.00 0.57 0.01 65 1017.4
20200926161533 87 294 3.0 9.0 0.00 0.57 0.01 66 1017.5
20200926161010 87 11 1.0 4.0 0.00 0.57 0.01 66 1017.6
20200926160510 86 234 0.0 4.0 0.00 0.57 0.01 68 1017.5
20200926160037 86 309 0.0 9.0 0.00 0.57 0.01 67 1017.6
20200926155510 86 282 2.0 9.0 0.00 0.57 0.01 68 1017.6
20200926155006 85 196 2.0 9.0 0.00 0.57 0.01 70 1017.7
20200926154515 84 304 3.0 6.0 0.00 0.57 0.01 69 1017.7
20200926153626 84 225 3.0 9.0 0.00 0.57 0.01 70 1017.9
20200926153154 84 207 1.0 6.0 0.00 0.57 0.01 71 1017.8
20200926152601 85 331 1.0 5.0 0.00 0.57 0.01 72 1017.9
20200926152109 85 328 1.0 10.0 0.00 0.57 0.01 73 1017.9
20200926151623 83 213 2.0 10.0 0.00 0.57 0.01 72 1017.8
20200926151109 83 227 2.0 8.0 0.00 0.57 0.01 73 1017.8
20200926150558 82 221 1.0 8.0 0.00 0.57 0.01 74 1017.8
20200926150117 82 265 2.0 11.0 0.00 0.57 0.01 75 1017.9
20200926145611 82 213 6.0 11.0 0.00 0.57 0.01 75 1017.9
20200926145105 82 310 1.0 7.0 0.00 0.57 0.01 76 1017.8
20200926144702 82 257 2.0 9.0 0.00 0.57 0.01 75 1017.7
20200926144055 83 15 2.0 12.0 0.00 0.57 0.01 75 1017.7
20200926143554 82 238 3.0 12.0 0.00 0.57 0.01 76 1017.6
20200926143121 81 180 2.0 9.0 0.00 0.57 0.01 78 1017.6
20200926142549 81 251 4.0 10.0 0.00 0.57 0.01 78 1017.6
20200926142047 81 236 3.0 10.0 0.00 0.57 0.01 79 1017.5
20200926141643 80 306 3.0 10.0 0.00 0.57 0.01 80 1017.4
20200926141054 80 245 2.0 10.0 0.00 0.57 0.01 81 1017.3
20200926140609 80 236 4.0 10.0 0.00 0.57 0.01 81 1017.3
20200926140105 80 265 2.0 8.0 0.00 0.57 0.01 81 1017.3
20200926135548 79 234 2.0 8.0 0.00 0.57 0.01 81 1017.3
20200926135045 79 240 3.0 9.0 0.00 0.57 0.01 81 1017.4
20200926134736 80 207 2.0 7.0 0.00 0.57 0.01 81 1017.3
20200926134053 80 226 2.0 7.0 0.00 0.57 0.01 81 1017.2
20200926133550 79 278 1.0 6.0 0.00 0.57 0.01 82 1017.2
20200926133136 79 226 2.0 6.0 0.00 0.57 0.01 83 1017.2
20200926132554 79 254 1.0 5.0 0.00 0.57 0.01 84 1017.2
20200926132048 79 250 0.0 6.0 0.00 0.57 0.01 85 1017.3
20200926131544 78 273 2.0 7.0 0.00 0.57 0.01 86 1017.3
20200926131137 78 225 4.0 8.0 0.00 0.57 0.01 86 1017.2
20200926130537 78 286 2.0 6.0 0.00 0.57 0.01 87 1017.3
20200926130052 77 242 0.0 7.0 0.00 0.57 0.01 88 1017.3
20200926125537 77 240 3.0 7.0 0.00 0.57 0.01 88 1017.3
20200926125034 77 236 1.0 5.0 0.00 0.57 0.01 89 1017.2
20200926124629 76 257 0.0 3.0 0.00 0.57 0.01 90 1017.3
20200926124036 76 242 1.0 4.0 0.00 0.57 0.01 90 1017.2
20200926123530 75 225 1.0 4.0 0.00 0.57 0.01 90 1017.0
20200926123150 75 244 0.0 0.0 0.00 0.57 0.01 90 1017.0
20200926122537 75 248 0.0 0.0 0.00 0.57 0.01 90 1017.0
20200926122030 74 257 0.0 0.0 0.00 0.57 0.01 90 1017.0
20200926121611 74 257 0.0 0.0 0.00 0.57 0.01 90 1017.0
20200926121030 74 257 0.0 0.0 0.00 0.57 0.01 90 1016.9
20200926120527 74 257 0.0 0.0 0.00 0.57 0.01 91 1016.9
20200926120054 73 257 0.0 0.0 0.00 0.57 0.01 90 1016.8
20200926115530 73 274 0.0 0.0 0.00 0.59 0.01 91 1016.7
20200926115028 73 275 0.0 0.0 0.00 0.59 0.01 91 1016.6
20200926114541 73 277 0.0 0.0 0.00 0.59 0.01 91 1016.6
20200926114036 73 278 0.0 0.0 0.00 0.59 0.01 90 1016.6
20200926113526 73 278 0.0 0.0 0.00 0.59 0.01 90 1016.6
20200926113105 73 278 0.0 0.0 0.00 0.59 0.01 90 1016.6
20200926112526 73 278 0.0 0.0 0.00 0.59 0.01 90 1016.6
20200926112032 73 278 0.0 0.0 0.00 0.59 0.01 90 1016.4
20200926111556 73 278 0.0 0.0 0.00 0.59 0.01 90 1016.4
20200926111028 73 278 0.0 0.0 0.00 0.59 0.01 90 1016.3
20200926110526 73 279 0.0 0.0 0.01 0.59 0.01 90 1016.3
20200926110129 73 279 0.0 0.0 0.01 0.59 0.01 90 1016.3
20200926105529 73 279 0.0 0.0 0.01 0.59 0.01 90 1016.2
20200926105025 73 279 0.0 0.0 0.01 0.59 0.01 91 1016.2
20200926104547 73 279 0.0 0.0 0.01 0.59 0.01 90 1016.0
20200926104029 73 279 0.0 0.0 0.01 0.59 0.01 90 1016.1
20200926103528 73 292 0.0 0.0 0.01 0.59 0.01 90 1016.0
20200926103059 73 292 0.0 0.0 0.01 0.59 0.01 91 1016.0
20200926102523 73 292 0.0 0.0 0.01 0.59 0.01 90 1016.0
20200926102024 73 292 0.0 0.0 0.01 0.59 0.01 90 1016.1
20200926101620 73 292 0.0 0.0 0.01 0.59 0.01 91 1016.0
20200926101035 73 292 0.0 0.0 0.01 0.59 0.01 91 1016.1
20200926100522 73 292 0.0 0.0 0.00 0.57 0.00 91 1016.0
20200926100023 73 292 0.0 0.0 0.00 0.57 0.00 91 1016.0
20200926095522 73 292 0.0 0.0 0.00 0.57 0.00 91 1015.9
20200926095025 73 292 0.0 0.0 0.00 0.57 0.00 91 1015.8
20200926094558 73 292 0.0 0.0 0.00 0.57 0.00 91 1015.8
20200926094022 73 292 0.0 0.0 0.00 0.57 0.00 91 1015.7
20200926093536 73 292 0.0 0.0 0.00 0.57 0.00 91 1015.7
20200926093054 73 292 0.0 0.0 0.00 0.57 0.00 90 1015.6
20200926092541 73 292 0.0 0.0 0.00 0.57 0.00 90 1015.6
20200926092019 73 292 0.0 0.0 0.00 0.57 0.00 91 1015.6
20200926091530 73 292 0.0 0.0 0.00 0.57 0.00 90 1015.6
20200926091036 73 292 0.0 0.0 0.00 0.57 0.00 90 1015.7
20200926090536 73 292 0.0 0.0 0.00 0.57 0.00 90 1015.8
20200926090044 73 292 0.0 0.0 0.00 0.57 0.00 90 1015.9
20200926085519 73 292 0.0 0.0 0.00 0.57 0.00 90 1015.9
20200926085026 73 292 0.0 0.0 0.00 0.57 0.00 90 1015.8
20200926084548 73 292 0.0 0.0 0.00 0.57 0.00 90 1015.9
20200926084036 73 292 0.0 0.0 0.00 0.57 0.00 90 1015.8
20200926083519 73 292 0.0 0.0 0.00 0.57 0.00 90 1015.7
20200926083120 73 292 0.0 0.0 0.00 0.57 0.00 90 1015.7
20200926082539 73 292 0.0 0.0 0.00 0.57 0.00 90 1015.7
20200926082019 73 292 0.0 0.0 0.00 0.57 0.00 90 1015.7
20200926081518 73 292 0.0 0.0 0.00 0.57 0.00 90 1015.8
20200926081103 73 292 0.0 0.0 0.00 0.57 0.00 90 1015.8
20200926080518 73 292 0.0 0.0 0.00 0.57 0.00 90 1015.8
20200926080035 74 292 0.0 0.0 0.00 0.57 0.00 90 1015.8
20200926075540 73 292 0.0 0.0 0.00 0.57 0.00 90 1015.7
20200926075028 74 292 0.0 0.0 0.00 0.57 0.00 90 1015.7
20200926074559 73 292 0.0 0.0 0.00 0.57 0.00 90 1015.7
20200926074016 73 292 0.0 0.0 0.00 0.57 0.00 90 1015.7